Home > Weather > Geretsried > Past weeks

Flag for Germany Past Weather in Geretsried, Bavaria, Germany — Yesterday and Last 2 Weeks

Now
66 °F

Scattered clouds.


Feels Like: 66 °F
Forecast: 56 / 77 °F
Wind: 6 mph from South

Location: Oberpfaffenhofen

Current Time: Jun 30, 2016 at 12:36:02 PM

Latest Report: Jun 30, 2016 at 11:50 AM


Visibility: N/A

Pressure: 30.07 "Hg (28.00 "Hg at 609m altitude)

Humidity: 88%

Dew Point: 63 °F

Location of GeretsriedLocation

Past Weather in Geretsried — Graph

°F

Geretsried Temperature Yesterday

Maximum temperature yesterday: 77 °F (at 4:50 PM)
Minimum temperature yesterday: 63 °F (at 6:50 AM)
Average temperature yesterday: 71 °F

High & Low Weather Summary for the Past Weeks

 TemperatureHumidityPressure
High86 °F (Jun 23, 3:20 PM)100% (Jun 16, 6:50 PM)30.30 "Hg (Jun 16, 6:50 PM)
Low48 °F (Jun 17, 6:50 AM)32% (Jun 28, 6:50 PM)29.56 "Hg (Jun 16, 9:50 AM)
Average68 °F66%30.04 "Hg
* Reported Jun 15 11:20 AM — Jun 30 11:20 AM, Geretsried, Weather by CustomWeather, © 2016

Note: Actual official high and low records may vary slightly from our data, if they occured in-between our weather recording intervals... More about our weather records

Advertising

Geretsried Weather History for the Previous 24 Hours

Scroll right to see more
 ConditionsComfort  
Time TempWeatherWind HumidityBarometerVisibility
11:20 AM
Thu, Jun 30
64 °FScattered clouds.5 mph88%30.04 "HgN/A
10:50 AM63 °FSprinkles. Broken clouds.3 mph88%30.04 "HgN/A
10:20 AM63 °FSprinkles. Broken clouds.2 mph94%30.04 "HgN/A
9:50 AM61 °FLight rain. Broken clouds.5 mph100%30.07 "HgN/A
9:20 AM61 °FSprinkles. Broken clouds.6 mph94%30.07 "HgN/A
8:50 AM63 °FSprinkles. Broken clouds.8 mph88%30.07 "HgN/A
8:20 AM61 °FSprinkles. Broken clouds.8 mph94%30.04 "HgN/A
7:50 AM63 °FSunny.8 mph88%30.04 "Hg10 mi
7:20 AM61 °FSunny.3 mph94%30.04 "Hg10 mi
6:50 AM63 °FSunny.2 mph94%30.01 "Hg10 mi
8:50 PM
Wed, Jun 29
70 °FSunny.2 mph83%29.98 "Hg10 mi
8:20 PM75 °FSunny.No wind54%29.98 "Hg10 mi
7:50 PM75 °FSunny.2 mph57%29.95 "Hg10 mi
7:20 PM77 °FPassing clouds.2 mph51%29.98 "HgN/A
6:50 PM77 °FPassing clouds.2 mph51%29.98 "HgN/A
6:20 PM75 °FPassing clouds.5 mph50%29.98 "HgN/A
5:50 PM77 °FScattered clouds.6 mph51%29.98 "HgN/A
5:20 PM77 °FScattered clouds.6 mph51%29.98 "HgN/A
4:50 PM77 °FScattered clouds.5 mph47%29.98 "HgN/A
4:20 PM75 °FScattered clouds.7 mph50%30.01 "HgN/A
3:50 PM75 °FBroken clouds.8 mph54%30.01 "HgN/A
3:20 PM75 °FPartly sunny.5 mph54%30.01 "HgN/A
2:50 PM75 °FBroken clouds.6 mph57%30.01 "HgN/A
2:20 PM73 °FPartly sunny.7 mph57%30.04 "HgN/A
1:50 PM72 °FPartly sunny.8 mph61%30.04 "HgN/A
1:20 PM72 °FPartly sunny.6 mph61%30.04 "HgN/A
12:50 PM72 °FPartly sunny.8 mph65%30.04 "HgN/A
12:20 PM70 °FPartly sunny.9 mph64%30.04 "HgN/A
Weather by CustomWeather, © 2016

See weather overviewHow to use our weather pages